Location: Newark
(41.0400°S, 62.7845°W)
Time: 06:20:42
(UTC+00:00)

Courier 1B Rocket - Pass Details

Date: 05 December 2021
Orbit: 920 x 1202 km, 28.2° (Epoch: 24 January)

Event Time Altitude Azimuth Distance (km) Brightness Sun altitude
Rises 15:03:53 0° 300° (WNW) 3,974 8.2 67.8°
Reaches altitude 10° 15:07:01 10° 310° (NW) 3,053 7.8 68.1°
Maximum altitude 15:13:24 30° 8° (N) 1,996 7.5 68.8°
Drops below altitude 10° 15:19:58 10° 64° (ENE) 3,141 8.1 69.4°
Sets 15:23:14 0° 74° (ENE) 4,106 8.4 69.7°
